Location: Unspecified
(0.0000°N, 0.0000°E)
Time: 03:33:23
(UTC+00:00)

Envisat - Pass Details

Date: 09 November 2019
Orbit: 764 x 766 km, 98.1° (Epoch: 11 November)

Event Time Altitude Azimuth Distance (km) Brightness Sun altitude
Rises 18:14:02 0° 162° (SSE) 3,230 6.2 -7.2°
Reaches altitude 10° 18:16:22 10° 158° (SSE) 2,302 5.4 -7.8°
Maximum altitude 18:21:22 61° 78° (ENE) 865 3.0 -9.0°
Drops below altitude 10° 18:26:21 10° 358° (N) 2,291 5.3 -10.2°
Sets 18:28:40 0° 355° (N) 3,214 6.1 -10.7°
